Retour au catalogue

STARLINK-35147

ActifCommunicationsVLEO
NORAD 65637·PAYLOAD·🇺🇸 United States

Lancé Sep 18, 2025 depuis Cape Canaveral Space Force Station

Loading…

Prochains Passages (prochaines 24 heures)

TLE

FraisSource: CelesTrak SupGP

Époque: Sep 14, 2026, 22:32 UTC

1 65637C 25210R   26257.93937500 -.00004566  00000+0 -13502-3 0  2578
2 65637  53.1566 143.7652 0000937  87.9444   7.4968 15.34367162    11

Suivez STARLINK-35147 en temps réel avec AllMySat

Download on the App Store